Time,TemperatureF,DewpointF,PressureIn,WindDirection,WindDirectionDegrees,WindSpeedMPH,WindSpeedGustMPH,Humidity,HourlyPrecipIn,Conditions,Clouds,dailyrainin,SoftwareType,DateUTC
2013-02-19 00:02:00,13.0,8.0,-100.00,WNW,285,31.0,37.0,78,0.00,,,-99.99,,2013-02-19 06:02:00,
2013-02-19 00:11:00,12.0,7.0,-100.00,WNW,295,29.0,37.0,79,0.00,,,-99.99,,2013-02-19 06:11:00,
2013-02-19 00:21:00,12.0,7.0,-100.00,WNW,295,29.0,37.0,79,0.00,,,-99.99,,2013-02-19 06:21:00,
2013-02-19 00:32:00,12.0,8.0,-100.00,WNW,300,25.0,30.0,82,0.00,,,-99.99,,2013-02-19 06:32:00,
2013-02-19 00:42:00,13.0,9.0,-100.00,WNW,295,23.0,31.0,84,0.00,,,-99.99,,2013-02-19 06:42:00,
2013-02-19 00:52:00,12.0,8.0,-100.00,WNW,290,29.0,39.0,82,0.00,,,-99.99,,2013-02-19 06:52:00,
2013-02-19 01:01:00,12.0,8.0,-100.00,WNW,290,29.0,39.0,82,0.00,,,-99.99,,2013-02-19 07:01:00,
2013-02-19 01:11:00,12.0,8.0,-100.00,WNW,285,28.0,40.0,82,0.00,,,-99.99,,2013-02-19 07:11:00,
2013-02-19 01:21:00,12.0,8.0,-100.00,WNW,295,26.0,39.0,82,0.01,,,-99.99,,2013-02-19 07:21:00,
2013-02-19 01:32:00,12.0,8.0,-100.00,WNW,295,26.0,39.0,82,0.01,,,-99.99,,2013-02-19 07:32:00,
2013-02-19 01:42:00,12.0,8.0,-100.00,WNW,295,26.0,39.0,82,0.01,,,-99.99,,2013-02-19 07:42:00,
2013-02-19 01:52:00,11.0,7.0,-100.00,WNW,300,24.0,-999.0,83,0.00,,,-99.99,,2013-02-19 07:52:00,
2013-02-19 02:02:00,11.0,7.0,-100.00,WNW,300,24.0,-999.0,83,0.00,,,-99.99,,2013-02-19 08:02:00,
2013-02-19 02:11:00,11.0,8.0,-100.00,NW,305,24.0,32.0,86,0.00,,,-99.99,,2013-02-19 08:11:00,
2013-02-19 02:21:00,12.0,9.0,-100.00,WNW,300,24.0,31.0,89,0.00,,,-99.99,,2013-02-19 08:21:00,
2013-02-19 02:31:00,10.0,6.0,-100.00,WNW,290,29.0,40.0,82,0.00,,,-99.99,,2013-02-19 08:31:00,
2013-02-19 02:42:00,9.0,4.0,-100.00,WNW,295,26.0,37.0,79,0.00,,,-99.99,,2013-02-19 08:42:00,
2013-02-19 02:52:00,9.0,4.0,-100.00,WNW,285,21.0,35.0,81,0.00,,,-99.99,,2013-02-19 08:52:00,
2013-02-19 03:01:00,8.0,4.0,-100.00,WNW,285,26.0,37.0,80,0.00,,,-99.99,,2013-02-19 09:01:00,
2013-02-19 03:11:00,8.0,4.0,-100.00,WNW,300,22.0,29.0,83,0.00,,,-99.99,,2013-02-19 09:11:00,
2013-02-19 03:21:00,8.0,4.0,-100.00,WNW,300,22.0,29.0,83,0.00,,,-99.99,,2013-02-19 09:21:00,
2013-02-19 03:32:00,8.0,5.0,-100.00,WNW,295,25.0,33.0,83,0.00,,,-99.99,,2013-02-19 09:32:00,
2013-02-19 03:42:00,8.0,4.0,-100.00,WNW,295,26.0,36.0,81,0.00,,,-99.99,,2013-02-19 09:42:00,
2013-02-19 03:52:00,8.0,4.0,-100.00,WNW,295,21.0,33.0,83,0.00,,,-99.99,,2013-02-19 09:52:00,
2013-02-19 04:01:00,8.0,5.0,-100.00,WNW,285,24.0,28.0,88,0.00,,,-99.99,,2013-02-19 10:01:00,
2013-02-19 04:11:00,8.0,3.0,-100.00,WNW,290,30.0,35.0,82,0.00,,,-99.99,,2013-02-19 10:11:00,
2013-02-19 04:21:00,7.0,3.0,-100.00,WNW,295,25.0,34.0,82,0.00,,,-99.99,,2013-02-19 10:21:00,
2013-02-19 04:31:00,7.0,3.0,-100.00,WNW,295,26.0,37.0,83,0.00,,,-99.99,,2013-02-19 10:31:00,
2013-02-19 04:42:00,7.0,3.0,-100.00,WNW,295,26.0,37.0,83,0.00,,,-99.99,,2013-02-19 10:42:00,
2013-02-19 04:52:00,6.0,2.0,-100.00,WNW,290,27.0,35.0,81,0.00,,,-99.99,,2013-02-19 10:52:00,
2013-02-19 05:01:00,6.0,2.0,-100.00,WNW,290,27.0,35.0,81,0.00,,,-99.99,,2013-02-19 11:01:00,
2013-02-19 05:11:00,6.0,1.0,-100.00,WNW,300,28.0,38.0,79,0.00,,,-99.99,,2013-02-19 11:11:00,
2013-02-19 05:22:00,6.0,1.0,-100.00,WNW,300,28.0,38.0,79,0.00,,,-99.99,,2013-02-19 11:22:00,
2013-02-19 05:32:00,5.0,0.0,-100.00,WNW,295,27.0,38.0,79,0.00,,,-99.99,,2013-02-19 11:32:00,
2013-02-19 05:42:00,5.0,0.0,-100.00,WNW,295,27.0,38.0,79,0.00,,,-99.99,,2013-02-19 11:42:00,
2013-02-19 05:52:00,5.0,0.0,-100.00,WNW,290,24.0,31.0,80,0.00,,,-99.99,,2013-02-19 11:52:00,
2013-02-19 06:01:00,5.0,1.0,-100.00,WNW,295,22.0,34.0,82,0.00,,,-99.99,,2013-02-19 12:01:00,
2013-02-19 06:12:00,5.0,1.0,-100.00,NW,305,19.0,26.0,85,0.00,,,-99.99,,2013-02-19 12:12:00,
2013-02-19 06:22:00,5.0,1.0,-100.00,NW,305,19.0,26.0,85,0.00,,,-99.99,,2013-02-19 12:22:00,
2013-02-19 06:32:00,5.0,1.0,-100.00,WNW,300,23.0,32.0,83,0.00,,,-99.99,,2013-02-19 12:32:00,
2013-02-19 06:42:00,4.0,0.0,-100.00,WNW,295,24.0,34.0,83,0.00,,,-99.99,,2013-02-19 12:42:00,
2013-02-19 06:52:00,4.0,1.0,-100.00,WNW,295,19.0,29.0,84,0.00,,,-99.99,,2013-02-19 12:52:00,
2013-02-19 07:02:00,4.0,0.0,-100.00,WNW,285,26.0,31.0,82,0.00,,,-99.99,,2013-02-19 13:02:00,
2013-02-19 07:11:00,4.0,-1.0,-100.00,WNW,295,26.0,38.0,81,0.00,,,-99.99,,2013-02-19 13:11:00,
2013-02-19 07:22:00,4.0,0.0,-100.00,WNW,300,24.0,38.0,81,0.00,,,-99.99,,2013-02-19 13:22:00,
2013-02-19 07:32:00,4.0,-1.0,-100.00,WNW,290,25.0,34.0,81,0.00,,,-99.99,,2013-02-19 13:32:00,
2013-02-19 07:42:00,4.0,-1.0,-100.00,WNW,285,26.0,37.0,81,0.00,,,-99.99,,2013-02-19 13:42:00,
2013-02-19 07:52:00,4.0,-1.0,-100.00,NW,305,27.0,35.0,80,0.00,,,-99.99,,2013-02-19 13:52:00,
2013-02-19 08:01:00,4.0,-1.0,-100.00,NW,305,26.0,36.0,78,0.00,,,-99.99,,2013-02-19 14:01:00,
2013-02-19 08:11:00,5.0,0.0,-100.00,WNW,290,25.0,40.0,80,0.00,,,-99.99,,2013-02-19 14:11:00,
2013-02-19 08:21:00,5.0,-1.0,-100.00,WNW,300,33.0,39.0,77,0.00,,,-99.99,,2013-02-19 14:21:00,
2013-02-19 08:32:00,6.0,0.0,-100.00,WNW,295,20.0,37.0,79,0.00,,,-99.99,,2013-02-19 14:32:00,
2013-02-19 08:42:00,6.0,0.0,-100.00,NW,305,24.0,33.0,77,0.00,,,-99.99,,2013-02-19 14:42:00,
2013-02-19 08:52:00,6.0,1.0,-100.00,WNW,285,26.0,35.0,78,0.00,,,-99.99,,2013-02-19 14:52:00,
2013-02-19 09:01:00,7.0,1.0,-100.00,WNW,295,29.0,35.0,77,0.00,,,-99.99,,2013-02-19 15:01:00,
2013-02-19 09:11:00,8.0,2.0,-100.00,WNW,290,25.0,38.0,75,0.00,,,-99.99,,2013-02-19 15:11:00,
2013-02-19 09:21:00,8.0,2.0,-100.00,WNW,285,26.0,36.0,78,0.00,,,-99.99,,2013-02-19 15:21:00,
2013-02-19 09:32:00,8.0,2.0,-100.00,WNW,295,29.0,37.0,75,0.00,,,-99.99,,2013-02-19 15:32:00,
2013-02-19 09:42:00,8.0,2.0,-100.00,NW,315,27.0,35.0,74,0.00,,,-99.99,,2013-02-19 15:42:00,
2013-02-19 09:52:00,9.0,3.0,-100.00,NW,305,24.0,35.0,75,0.00,,,-99.99,,2013-02-19 15:52:00,
2013-02-19 10:02:00,10.0,4.0,-100.00,WNW,300,21.0,37.0,73,0.00,,,-99.99,,2013-02-19 16:02:00,
2013-02-19 10:11:00,10.0,4.0,-100.00,WNW,300,21.0,37.0,73,0.00,,,-99.99,,2013-02-19 16:11:00,
2013-02-19 10:21:00,10.0,4.0,-100.00,WNW,295,29.0,32.0,75,0.00,,,-99.99,,2013-02-19 16:21:00,
2013-02-19 10:32:00,11.0,4.0,-100.00,WNW,285,29.0,40.0,73,0.00,,,-99.99,,2013-02-19 16:32:00,
2013-02-19 10:41:00,10.0,3.0,-100.00,WNW,285,24.0,34.0,72,0.00,,,-99.99,,2013-02-19 16:41:00,
2013-02-19 10:52:00,11.0,4.0,-100.00,WNW,285,28.0,33.0,73,0.00,,,-99.99,,2013-02-19 16:52:00,
2013-02-19 11:01:00,11.0,3.0,-100.00,NW,305,29.0,38.0,69,0.00,,,-99.99,,2013-02-19 17:01:00,
2013-02-19 11:11:00,13.0,6.0,-100.00,WNW,290,26.0,36.0,72,0.00,,,-99.99,,2013-02-19 17:11:00,
2013-02-19 11:21:00,13.0,5.0,-100.00,NW,305,24.0,35.0,71,0.00,,,-99.99,,2013-02-19 17:21:00,
2013-02-19 11:32:00,13.0,5.0,-100.00,WNW,295,24.0,34.0,68,0.00,,,-99.99,,2013-02-19 17:32:00,
2013-02-19 11:42:00,13.0,4.0,-100.00,WNW,295,29.0,39.0,67,0.00,,,-99.99,,2013-02-19 17:42:00,
2013-02-19 11:52:00,14.0,6.0,-100.00,NW,305,27.0,35.0,68,0.00,,,-99.99,,2013-02-19 17:52:00,
2013-02-19 12:01:00,14.0,6.0,-100.00,WNW,290,26.0,35.0,68,0.00,,,-99.99,,2013-02-19 18:01:00,
2013-02-19 12:11:00,14.0,5.0,-100.00,WNW,295,26.0,40.0,66,0.00,,,-99.99,,2013-02-19 18:11:00,
2013-02-19 12:21:00,15.0,6.0,-100.00,WNW,285,28.0,37.0,66,0.00,,,-99.99,,2013-02-19 18:21:00,
2013-02-19 12:31:00,15.0,6.0,-100.00,WNW,285,28.0,37.0,66,0.00,,,-99.99,,2013-02-19 18:31:00,
2013-02-19 12:42:00,17.0,7.0,-100.00,WNW,285,28.0,37.0,64,0.00,,,-99.99,,2013-02-19 18:42:00,
2013-02-19 12:51:00,16.0,6.0,-100.00,WNW,290,30.0,35.0,63,0.00,,,-99.99,,2013-02-19 18:51:00,
2013-02-19 13:01:00,17.0,7.0,-100.00,WNW,300,23.0,35.0,63,0.00,,,-99.99,,2013-02-19 19:01:00,
2013-02-19 13:11:00,17.0,7.0,-100.00,WNW,285,29.0,37.0,63,0.00,,,-99.99,,2013-02-19 19:11:00,
2013-02-19 13:21:00,17.0,7.0,-100.00,WNW,290,27.0,39.0,62,0.00,,,-99.99,,2013-02-19 19:21:00,
2013-02-19 13:31:00,18.0,7.0,-100.00,WNW,285,25.0,37.0,61,0.00,,,-99.99,,2013-02-19 19:31:00,
2013-02-19 13:41:00,18.0,7.0,-100.00,NW,305,24.0,37.0,62,0.00,,,-99.99,,2013-02-19 19:41:00,
2013-02-19 13:51:00,18.0,8.0,-100.00,WNW,295,24.0,37.0,63,0.00,,,-99.99,,2013-02-19 19:51:00,
2013-02-19 14:01:00,18.0,7.0,-100.00,West,280,28.0,35.0,62,0.00,,,-99.99,,2013-02-19 20:01:00,
2013-02-19 14:12:00,18.0,7.0,-100.00,WNW,285,24.0,40.0,61,0.00,,,-99.99,,2013-02-19 20:12:00,
2013-02-19 14:21:00,18.0,6.0,-100.00,WNW,295,32.0,39.0,60,0.00,,,-99.99,,2013-02-19 20:21:00,
2013-02-19 14:32:00,18.0,6.0,-100.00,NW,315,26.0,35.0,59,0.00,,,-99.99,,2013-02-19 20:32:00,
2013-02-19 14:42:00,19.0,7.0,-100.00,WNW,300,29.0,37.0,59,0.00,,,-99.99,,2013-02-19 20:42:00,
2013-02-19 14:52:00,18.0,6.0,-100.00,WNW,295,29.0,39.0,58,0.00,,,-99.99,,2013-02-19 20:52:00,
2013-02-19 15:02:00,18.0,7.0,-100.00,WNW,290,26.0,34.0,59,0.00,,,-99.99,,2013-02-19 21:02:00,
2013-02-19 15:11:00,18.0,6.0,-100.00,WNW,300,26.0,34.0,58,0.00,,,-99.99,,2013-02-19 21:11:00,
2013-02-19 15:21:00,18.0,7.0,-100.00,West,280,27.0,34.0,59,0.00,,,-99.99,,2013-02-19 21:21:00,
2013-02-19 15:32:00,18.0,6.0,-100.00,WNW,300,24.0,34.0,58,0.00,,,-99.99,,2013-02-19 21:32:00,
2013-02-19 15:42:00,19.0,7.0,-100.00,WNW,300,20.0,38.0,58,0.00,,,-99.99,,2013-02-19 21:42:00,
2013-02-19 15:51:00,18.0,6.0,-100.00,WNW,295,30.0,37.0,57,0.00,,,-99.99,,2013-02-19 21:51:00,
2013-02-19 16:02:00,18.0,6.0,-100.00,WNW,285,24.0,34.0,58,0.00,,,-99.99,,2013-02-19 22:02:00,
2013-02-19 16:11:00,19.0,6.0,-100.00,NW,305,27.0,37.0,57,0.00,,,-99.99,,2013-02-19 22:11:00,
2013-02-19 16:21:00,19.0,6.0,-100.00,NW,305,24.0,33.0,57,0.00,,,-99.99,,2013-02-19 22:21:00,
2013-02-19 16:32:00,18.0,6.0,-100.00,NW,315,26.0,35.0,58,0.00,,,-99.99,,2013-02-19 22:32:00,
2013-02-19 16:41:00,18.0,7.0,-100.00,WNW,285,23.0,31.0,59,0.00,,,-99.99,,2013-02-19 22:41:00,
2013-02-19 16:51:00,18.0,6.0,-100.00,NW,305,27.0,34.0,58,0.00,,,-99.99,,2013-02-19 22:51:00,
2013-02-19 17:01:00,18.0,7.0,-100.00,WNW,295,25.0,30.0,60,0.00,,,-99.99,,2013-02-19 23:01:00,
2013-02-19 17:11:00,18.0,7.0,-100.00,WNW,300,21.0,32.0,60,0.00,,,-99.99,,2013-02-19 23:11:00,
2013-02-19 17:21:00,18.0,7.0,-100.00,WNW,290,21.0,28.0,61,0.00,,,-99.99,,2013-02-19 23:21:00,
2013-02-19 17:32:00,17.0,7.0,-100.00,WNW,295,18.0,30.0,62,0.00,,,-99.99,,2013-02-19 23:32:00,
2013-02-19 17:42:00,17.0,6.0,-100.00,West,280,21.0,30.0,61,0.00,,,-99.99,,2013-02-19 23:42:00,
2013-02-19 17:52:00,17.0,6.0,-100.00,West,280,21.0,30.0,61,0.00,,,-99.99,,2013-02-19 23:52:00,
2013-02-19 18:01:00,17.0,6.0,-100.00,WNW,285,22.0,30.0,64,0.00,,,-99.99,,2013-02-20 00:01:00,
2013-02-19 18:11:00,16.0,7.0,-100.00,WNW,300,19.0,24.0,65,0.00,,,-99.99,,2013-02-20 00:11:00,
2013-02-19 18:21:00,16.0,7.0,-100.00,WNW,300,19.0,24.0,66,0.00,,,-99.99,,2013-02-20 00:21:00,
2013-02-19 18:32:00,16.0,7.0,-100.00,WNW,290,17.0,24.0,68,0.00,,,-99.99,,2013-02-20 00:32:00,
2013-02-19 18:42:00,15.0,7.0,-100.00,WNW,290,14.0,21.0,69,0.00,,,-99.99,,2013-02-20 00:42:00,
2013-02-19 18:51:00,15.0,7.0,-100.00,WNW,300,17.0,26.0,69,0.00,,,-99.99,,2013-02-20 00:51:00,
2013-02-19 19:02:00,15.0,7.0,-100.00,WNW,300,17.0,27.0,68,0.00,,,-99.99,,2013-02-20 01:02:00,
2013-02-19 19:11:00,15.0,7.0,-100.00,NW,305,16.0,23.0,69,0.00,,,-99.99,,2013-02-20 01:11:00,
2013-02-19 19:21:00,15.0,7.0,-100.00,NW,305,16.0,23.0,69,0.00,,,-99.99,,2013-02-20 01:21:00,
2013-02-19 19:32:00,15.0,7.0,-100.00,NW,305,19.0,26.0,69,0.00,,,-99.99,,2013-02-20 01:32:00,
2013-02-19 19:42:00,14.0,7.0,-100.00,NW,315,13.0,26.0,72,0.00,,,-99.99,,2013-02-20 01:42:00,
2013-02-19 19:51:00,14.0,7.0,-100.00,NW,315,13.0,22.0,75,0.00,,,-99.99,,2013-02-20 01:51:00,
2013-02-19 20:01:00,14.0,7.0,-100.00,NW,315,13.0,22.0,75,0.00,,,-99.99,,2013-02-20 02:01:00,
2013-02-19 20:11:00,13.0,6.0,-100.00,NW,310,16.0,22.0,75,0.00,,,-99.99,,2013-02-20 02:11:00,
2013-02-19 20:21:00,13.0,6.0,-100.00,NW,310,16.0,22.0,75,0.00,,,-99.99,,2013-02-20 02:21:00,
2013-02-19 20:32:00,12.0,5.0,-100.00,NW,315,19.0,24.0,74,0.00,,,-99.99,,2013-02-20 02:32:00,
2013-02-19 20:42:00,11.0,5.0,-100.00,NW,325,21.0,27.0,74,0.00,,,-99.99,,2013-02-20 02:42:00,
2013-02-19 20:52:00,10.0,4.0,-100.00,NW,325,19.0,27.0,74,0.00,,,-99.99,,2013-02-20 02:52:00,
2013-02-19 21:01:00,10.0,3.0,-100.00,NW,325,21.0,30.0,74,0.00,,,-99.99,,2013-02-20 03:01:00,
2013-02-19 21:12:00,8.0,3.0,-100.00,NNW,340,20.0,26.0,76,0.00,,,-99.99,,2013-02-20 03:12:00,
2013-02-19 21:22:00,8.0,3.0,-100.00,NNW,340,20.0,26.0,76,0.00,,,-99.99,,2013-02-20 03:22:00,
2013-02-19 21:32:00,7.0,2.0,-100.00,NW,320,19.0,24.0,78,0.00,,,-99.99,,2013-02-20 03:32:00,
2013-02-19 21:41:00,6.0,0.0,-100.00,NW,325,20.0,28.0,77,0.00,,,-99.99,,2013-02-20 03:41:00,
2013-02-19 21:51:00,6.0,0.0,-100.00,NW,325,20.0,28.0,77,0.00,,,-99.99,,2013-02-20 03:51:00,
2013-02-19 22:01:00,6.0,1.0,-100.00,NNW,335,16.0,26.0,82,0.00,,,-99.99,,2013-02-20 04:01:00,
2013-02-19 22:11:00,5.0,0.0,-100.00,NNW,330,18.0,24.0,79,0.00,,,-99.99,,2013-02-20 04:11:00,
2013-02-19 22:21:00,5.0,-1.0,-100.00,North,-999,-999.0,-999.0,76,-99.99,,,-99.99,,2013-02-20 04:21:00,
2013-02-19 22:31:00,4.0,-1.0,-100.00,NNW,340,13.0,22.0,79,0.00,,,-99.99,,2013-02-20 04:31:00,
2013-02-19 22:42:00,4.0,-2.0,-100.00,NNW,340,19.0,24.0,77,0.00,,,-99.99,,2013-02-20 04:42:00,
2013-02-19 22:52:00,3.0,-1.0,-100.00,NW,325,13.0,21.0,79,0.00,,,-99.99,,2013-02-20 04:52:00,
2013-02-19 23:02:00,3.0,-1.0,-100.00,NW,315,10.0,17.0,80,0.00,,,-99.99,,2013-02-20 05:02:00,
2013-02-19 23:12:00,3.0,-1.0,-100.00,NNW,330,9.0,14.0,80,0.00,,,-99.99,,2013-02-20 05:12:00,
2013-02-19 23:22:00,3.0,-1.0,-100.00,NNW,330,9.0,14.0,80,0.00,,,-99.99,,2013-02-20 05:22:00,
2013-02-19 23:32:00,3.0,-2.0,-100.00,NNW,330,14.0,17.0,80,0.00,,,-99.99,,2013-02-20 05:32:00,
2013-02-19 23:43:00,3.0,-2.0,-100.00,NNW,335,14.0,19.0,78,0.00,,,-99.99,,2013-02-20 05:43:00,
2013-02-19 23:52:00,3.0,-1.0,-100.00,NW,325,10.0,15.0,83,0.00,,,-99.99,,2013-02-20 05:52:00,